STARLINK-3132, 49457

Orbit data source: Space-Track

STARLINK-3132, 49457 is a payload satellite owned by SpaceX/Seattle (US) in LEO that was launched on Sat, 13 Nov 2021 UTC via an FALCON 9 launch vehicle from the Air Force Eastern Test Range (AFETR). Payload-class satellites include a variety of spacecraft equipped with specific instruments for various scientific and technological missions. These include communications satellites like Starlink; space stations such as the ISS; scientific satellites like the Hubble; Earth observation satellites from companies like Planet Labs, Umbra, and HawkEye 360; GPS; miniature CubeSats for education and research; and military/defense satellites.

Loading next visibility...
Identifier
49457, 2021-104BB
Orbit
LEO
Country
Flag of USUS
Related business
Manufacturer
SpaceX/Seattle
Mission
Operational Commercial Communications
Bus & Motor
STARLINK, Unknown motor
Mass
290 kg wet, ~270 kg dry
Launch date (UTC)
2021-11-13 (5 years ago)
Launch vehicle
FALCON 9
Launch site
Air Force Eastern Test Range (AFETR)
Object type
Payload
Rocket body
Debris
Shape & HBR
Box + 1 Pan, 10.1 m
Radar Cross Section
13.562 m², Large (>1 m²)

Expand to show TLE details & history
Last TLE update: 1 week ago

TLE from 1 week ago
0 STARLINK-3132
1 49457U 21104BB  26155.00002315  .00041981  00000-0  26422-2 0  9998
2 49457  53.1773 191.6455 0001020  98.4285  67.9237 15.08811687  5810
Epoch: 2026-06-04T00:00Z
TLE epoch observation values (Epoch: 2026-06-04T00:00:02.000Z)
Latitude
10.86673°
Longitude
110.96857°
Altitude
539.699 km
Speed
7.595 km/s
True Right ascension
00h 13m 42s
True Declination
10° 48' 04"
Sunlit
Object was in daylight at epoch
Visualization orbit readout
Latitude
Unknown
Longitude
Unknown
Altitude
Unknown
Speed
Unknown
Apparent Right ascension
Unknown
Apparent Declination
Unknown
Sunlit
N/A
Visualization observer readout
Local Sidereal Time
14:54:10
Azimuth
Unknown
Elevation
Unknown
Doppler factor
Unknown
Orbital elements
Apogee altitude
540.787 km
Perigee altitude
539.376 km
Semi-major axis
6,918.218 km
Eccentricity
0.0001
Inclination
53.1773°
RAAN
191.6455°
Arg. of periapsis
98.4285°
True anomaly
67.93453°
Mean anomaly
67.9237°
Eccentric anomaly
67.92912°
Mean motion
3.77183 °/min
Orbital period
95.44 mins
BSTAR
0.0026422
Loading maneuver chart data...
Computing Atmospheric mass density...
Loading historical data...
Loading historical data...
Loading historical data...
Loading historical data...
Loading historical data...
Loading historical data...
Loading historical data...

Documentation

Showing up to 5 results
|